Time,TemperatureF,DewpointF,PressureIn,WindDirection,WindDirectionDegrees,WindSpeedMPH,WindSpeedGustMPH,Humidity,HourlyPrecipIn,Conditions,Clouds,dailyrainin,SoftwareType,DateUTC
2013-03-07 00:00:00,34.3,27.6,30.24,NW,316,0.0,6.8,76,0.00,,,0.00,WUHU216WMR968SP,2013-03-07 05:00:00,
2013-03-07 00:05:00,34.3,27.6,30.24,NNE,15,0.0,6.0,76,0.00,,,0.00,WUHU216WMR968SP,2013-03-07 05:05:00,
2013-03-07 00:10:00,34.3,27.2,30.24,NNE,19,0.0,7.4,75,0.00,,,0.00,WUHU216WMR968SP,2013-03-07 05:10:00,
2013-03-07 00:16:00,34.3,27.2,30.24,NNE,33,0.0,7.4,75,0.00,,,0.00,WUHU216WMR968SP,2013-03-07 05:16:00,
2013-03-07 00:21:00,34.3,27.2,30.24,NNW,327,3.3,7.4,75,0.00,,,0.00,WUHU216WMR968SP,2013-03-07 05:21:00,
2013-03-07 00:26:00,34.3,27.2,30.24,NNE,30,0.0,7.4,75,0.00,,,0.00,WUHU216WMR968SP,2013-03-07 05:26:00,
2013-03-07 00:31:00,34.3,27.2,30.24,North,6,4.6,7.4,75,0.00,,,0.00,WUHU216WMR968SP,2013-03-07 05:31:00,
2013-03-07 00:36:00,34.3,27.2,30.24,North,0,0.0,6.0,75,0.00,,,0.00,WUHU216WMR968SP,2013-03-07 05:36:00,
2013-03-07 00:41:00,34.3,27.2,30.24,NNE,31,0.0,4.6,75,0.00,,,0.00,WUHU216WMR968SP,2013-03-07 05:41:00,
2013-03-07 00:46:00,34.3,27.2,30.24,NNW,340,0.0,6.8,75,0.00,,,0.00,WUHU216WMR968SP,2013-03-07 05:46:00,
2013-03-07 00:51:00,34.3,27.2,30.24,NNW,335,3.3,6.8,75,0.00,,,0.00,WUHU216WMR968SP,2013-03-07 05:51:00,
2013-03-07 00:56:00,34.3,27.2,30.24,NNW,335,0.0,4.6,75,0.00,,,0.00,WUHU216WMR968SP,2013-03-07 05:56:00,
2013-03-07 01:01:00,34.3,27.2,30.24,NNW,337,0.0,4.6,75,0.00,,,0.00,WUHU216WMR968SP,2013-03-07 06:01:00,
2013-03-07 01:06:00,34.3,27.2,30.24,NNW,340,0.0,4.6,75,0.00,,,0.00,WUHU216WMR968SP,2013-03-07 06:06:00,
2013-03-07 01:11:00,34.2,27.1,30.24,North,357,0.0,4.1,75,0.00,,,0.00,WUHU216WMR968SP,2013-03-07 06:11:00,
2013-03-07 01:16:00,34.3,27.2,30.24,North,353,3.3,5.4,75,0.00,,,0.00,WUHU216WMR968SP,2013-03-07 06:16:00,
2013-03-07 01:21:00,34.3,27.2,30.24,North,5,0.0,6.8,75,0.00,,,0.00,WUHU216WMR968SP,2013-03-07 06:21:00,
2013-03-07 01:26:00,34.3,27.2,30.24,North,353,0.0,6.8,75,0.00,,,0.00,WUHU216WMR968SP,2013-03-07 06:26:00,
2013-03-07 01:31:00,34.3,27.2,30.24,NW,319,0.0,5.4,75,0.00,,,0.00,WUHU216WMR968SP,2013-03-07 06:31:00,
2013-03-07 01:36:00,34.3,27.2,30.27,NNE,17,0.0,5.4,75,0.00,,,0.00,WUHU216WMR968SP,2013-03-07 06:36:00,
2013-03-07 01:41:00,34.3,27.2,30.27,NNW,339,4.1,6.0,75,0.00,,,0.00,WUHU216WMR968SP,2013-03-07 06:41:00,
2013-03-07 01:46:00,34.3,27.2,30.27,NE,56,3.3,6.0,75,0.00,,,0.00,WUHU216WMR968SP,2013-03-07 06:46:00,
2013-03-07 01:51:00,34.2,27.1,30.27,ENE,73,0.0,5.4,75,0.00,,,0.00,WUHU216WMR968SP,2013-03-07 06:51:00,
2013-03-07 01:56:00,34.2,27.1,30.27,NNE,12,3.3,5.4,75,0.00,,,0.00,WUHU216WMR968SP,2013-03-07 06:56:00,
2013-03-07 02:01:00,34.2,27.1,30.27,North,353,3.3,6.0,75,0.00,,,0.00,WUHU216WMR968SP,2013-03-07 07:01:00,
2013-03-07 02:06:00,34.2,27.1,30.27,NNW,348,3.3,6.0,75,0.00,,,0.00,WUHU216WMR968SP,2013-03-07 07:06:00,
2013-03-07 02:11:00,34.2,27.1,30.27,North,7,0.0,6.0,75,0.00,,,0.00,WUHU216WMR968SP,2013-03-07 07:11:00,
2013-03-07 02:16:00,34.2,27.1,30.27,North,1,0.0,6.0,75,0.00,,,0.00,WUHU216WMR968SP,2013-03-07 07:16:00,
2013-03-07 02:21:00,34.2,27.1,30.24,NW,312,3.3,7.4,75,0.00,,,0.00,WUHU216WMR968SP,2013-03-07 07:21:00,
2013-03-07 02:26:00,34.2,27.1,30.24,NNW,341,0.0,7.4,75,0.00,,,0.00,WUHU216WMR968SP,2013-03-07 07:26:00,
2013-03-07 02:31:00,34.0,27.0,30.24,North,357,0.0,7.4,75,0.00,,,0.00,WUHU216WMR968SP,2013-03-07 07:31:00,
2013-03-07 02:36:00,34.0,27.0,30.27,NNW,331,0.0,7.4,75,0.00,,,0.00,WUHU216WMR968SP,2013-03-07 07:36:00,
2013-03-07 02:41:00,34.0,27.0,30.27,NNW,341,0.0,5.4,75,0.00,,,0.00,WUHU216WMR968SP,2013-03-07 07:41:00,
2013-03-07 02:46:00,34.0,27.0,30.27,NNW,331,0.0,5.4,75,0.00,,,0.00,WUHU216WMR968SP,2013-03-07 07:46:00,
2013-03-07 02:51:00,34.0,27.0,30.27,NNE,14,0.0,5.4,75,0.00,,,0.00,WUHU216WMR968SP,2013-03-07 07:51:00,
2013-03-07 02:56:00,34.0,27.0,30.27,North,357,0.0,5.4,75,0.00,,,0.00,WUHU216WMR968SP,2013-03-07 07:56:00,
2013-03-07 03:02:00,34.0,27.0,30.27,NNW,342,0.0,5.4,75,0.00,,,0.00,WUHU216WMR968SP,2013-03-07 08:02:00,
2013-03-07 03:07:00,34.0,27.0,30.27,NW,318,0.0,4.6,75,0.00,,,0.00,WUHU216WMR968SP,2013-03-07 08:07:00,
2013-03-07 03:12:00,34.0,27.0,30.27,NNE,23,0.0,4.1,75,0.00,,,0.00,WUHU216WMR968SP,2013-03-07 08:12:00,
2013-03-07 03:17:00,34.0,27.3,30.27,NE,44,0.0,4.1,76,0.00,,,0.00,WUHU216WMR968SP,2013-03-07 08:17:00,
2013-03-07 03:22:00,34.0,27.3,30.27,NW,322,0.0,4.1,76,0.00,,,0.00,WUHU216WMR968SP,2013-03-07 08:22:00,
2013-03-07 03:27:00,34.0,27.3,30.27,NNE,20,0.0,3.3,76,0.00,,,0.00,WUHU216WMR968SP,2013-03-07 08:27:00,
2013-03-07 03:32:00,34.0,27.3,30.27,NNE,20,0.0,0.0,76,0.00,,,0.00,WUHU216WMR968SP,2013-03-07 08:32:00,
2013-03-07 03:37:00,34.0,27.3,30.27,NNE,25,0.0,4.6,76,0.00,,,0.00,WUHU216WMR968SP,2013-03-07 08:37:00,
2013-03-07 03:42:00,34.0,27.3,30.27,NNE,25,0.0,4.6,76,0.00,,,0.00,WUHU216WMR968SP,2013-03-07 08:42:00,
2013-03-07 03:47:00,33.8,27.1,30.27,North,4,0.0,3.3,76,0.00,,,0.00,WUHU216WMR968SP,2013-03-07 08:47:00,
2013-03-07 03:52:00,33.8,27.1,30.27,NNE,20,3.3,4.6,76,0.00,,,0.00,WUHU216WMR968SP,2013-03-07 08:52:00,
2013-03-07 03:57:00,33.8,26.8,30.27,NNE,33,3.3,5.4,75,0.00,,,0.00,WUHU216WMR968SP,2013-03-07 08:57:00,
2013-03-07 04:02:00,33.8,26.8,30.27,NNE,22,0.0,6.0,75,0.00,,,0.00,WUHU216WMR968SP,2013-03-07 09:02:00,
2013-03-07 04:07:00,33.8,26.8,30.27,NNE,30,0.0,6.0,75,0.00,,,0.00,WUHU216WMR968SP,2013-03-07 09:07:00,
2013-03-07 04:12:00,33.8,26.8,30.27,NE,50,0.0,5.4,75,0.00,,,0.00,WUHU216WMR968SP,2013-03-07 09:12:00,
2013-03-07 04:17:00,33.8,26.8,30.27,NNE,21,3.3,6.0,75,0.00,,,0.00,WUHU216WMR968SP,2013-03-07 09:17:00,
2013-03-07 04:22:00,33.8,26.8,30.27,ENE,65,0.0,6.0,75,0.00,,,0.00,WUHU216WMR968SP,2013-03-07 09:22:00,
2013-03-07 04:27:00,33.8,26.8,30.27,NNW,328,0.0,4.6,75,0.00,,,0.00,WUHU216WMR968SP,2013-03-07 09:27:00,
2013-03-07 04:32:00,33.6,26.6,30.27,North,3,0.0,3.3,75,0.00,,,0.00,WUHU216WMR968SP,2013-03-07 09:32:00,
2013-03-07 04:37:00,33.6,26.6,30.27,NNE,24,0.0,0.0,75,0.00,,,0.00,WUHU216WMR968SP,2013-03-07 09:37:00,
2013-03-07 04:42:00,33.6,26.6,30.27,NNE,24,0.0,0.0,75,0.00,,,0.00,WUHU216WMR968SP,2013-03-07 09:42:00,
2013-03-07 04:47:00,33.6,26.6,30.27,NNE,26,0.0,0.0,75,0.00,,,0.00,WUHU216WMR968SP,2013-03-07 09:47:00,
2013-03-07 04:52:00,33.6,26.6,30.27,NNE,25,0.0,0.0,75,0.00,,,0.00,WUHU216WMR968SP,2013-03-07 09:52:00,
2013-03-07 04:57:00,33.6,26.6,30.27,NNE,26,0.0,0.0,75,0.00,,,0.00,WUHU216WMR968SP,2013-03-07 09:57:00,
2013-03-07 05:03:00,33.6,26.6,30.27,NE,41,0.0,4.6,75,0.00,,,0.00,WUHU216WMR968SP,2013-03-07 10:03:00,
2013-03-07 05:08:00,33.6,26.6,30.27,ENE,67,0.0,4.6,75,0.00,,,0.00,WUHU216WMR968SP,2013-03-07 10:08:00,
2013-03-07 05:13:00,33.6,26.9,30.27,NNW,328,3.3,5.4,76,0.00,,,0.00,WUHU216WMR968SP,2013-03-07 10:13:00,
2013-03-07 05:18:00,33.6,26.6,30.27,NNE,21,0.0,5.4,75,0.00,,,0.00,WUHU216WMR968SP,2013-03-07 10:18:00,
2013-03-07 05:23:00,33.6,26.9,30.30,NNE,20,0.0,5.4,76,0.00,,,0.00,WUHU216WMR968SP,2013-03-07 10:23:00,
2013-03-07 05:28:00,33.6,26.9,30.30,ESE,106,0.0,4.1,76,0.00,,,0.00,WUHU216WMR968SP,2013-03-07 10:28:00,
2013-03-07 05:33:00,33.6,26.9,30.30,North,1,0.0,6.0,76,0.00,,,0.00,WUHU216WMR968SP,2013-03-07 10:33:00,
2013-03-07 05:38:00,33.6,26.6,30.30,NNW,327,0.0,6.0,75,0.00,,,0.00,WUHU216WMR968SP,2013-03-07 10:38:00,
2013-03-07 05:43:00,33.6,26.6,30.30,North,5,0.0,4.6,75,0.00,,,0.00,WUHU216WMR968SP,2013-03-07 10:43:00,
2013-03-07 05:48:00,33.6,26.6,30.30,NNE,18,0.0,5.4,75,0.00,,,0.00,WUHU216WMR968SP,2013-03-07 10:48:00,
2013-03-07 05:53:00,33.6,26.6,30.30,NNE,25,0.0,5.4,75,0.00,,,0.00,WUHU216WMR968SP,2013-03-07 10:53:00,
2013-03-07 05:58:00,33.6,26.6,30.30,NNE,28,0.0,5.4,75,0.00,,,0.00,WUHU216WMR968SP,2013-03-07 10:58:00,
2013-03-07 06:03:00,33.6,26.6,30.30,NNE,28,0.0,5.4,75,0.00,,,0.00,WUHU216WMR968SP,2013-03-07 11:03:00,
2013-03-07 06:08:00,33.6,26.6,30.30,North,9,0.0,0.0,75,0.00,,,0.00,WUHU216WMR968SP,2013-03-07 11:08:00,
2013-03-07 06:13:00,33.6,26.6,30.30,NNE,20,0.0,5.4,75,0.00,,,0.00,WUHU216WMR968SP,2013-03-07 11:13:00,
2013-03-07 06:18:00,33.6,26.6,30.30,NE,43,0.0,5.4,75,0.00,,,0.00,WUHU216WMR968SP,2013-03-07 11:18:00,
2013-03-07 06:23:00,33.6,26.2,30.30,NE,38,0.0,4.6,74,0.00,,,0.00,WUHU216WMR968SP,2013-03-07 11:23:00,
2013-03-07 06:28:00,33.6,26.2,30.30,NE,38,0.0,4.6,74,0.00,,,0.00,WUHU216WMR968SP,2013-03-07 11:28:00,
2013-03-07 06:33:00,33.6,26.2,30.30,NNE,32,0.0,0.0,74,0.00,,,0.00,WUHU216WMR968SP,2013-03-07 11:33:00,
2013-03-07 06:38:00,33.6,26.2,30.30,NE,34,0.0,0.0,74,0.00,,,0.00,WUHU216WMR968SP,2013-03-07 11:38:00,
2013-03-07 06:43:00,33.6,26.2,30.30,NE,37,0.0,4.6,74,0.00,,,0.00,WUHU216WMR968SP,2013-03-07 11:43:00,
2013-03-07 06:48:00,33.6,26.2,30.30,NNE,16,3.3,4.6,74,0.00,,,0.00,WUHU216WMR968SP,2013-03-07 11:48:00,
2013-03-07 06:53:00,33.6,26.2,30.30,NNW,345,0.0,6.0,74,0.00,,,0.00,WUHU216WMR968SP,2013-03-07 11:53:00,
2013-03-07 06:58:00,33.6,26.2,30.30,North,11,0.0,6.0,74,0.00,,,0.00,WUHU216WMR968SP,2013-03-07 11:58:00,
2013-03-07 07:03:00,33.6,26.2,30.30,North,5,0.0,4.1,74,0.00,,,0.00,WUHU216WMR968SP,2013-03-07 12:03:00,
2013-03-07 07:08:00,33.6,26.2,30.30,North,8,0.0,0.0,74,0.00,,,0.00,WUHU216WMR968SP,2013-03-07 12:08:00,
2013-03-07 07:14:00,33.6,26.2,30.30,NE,39,0.0,6.0,74,0.00,,,0.00,WUHU216WMR968SP,2013-03-07 12:14:00,
2013-03-07 07:19:00,33.6,26.2,30.30,North,4,0.0,6.0,74,0.00,,,0.00,WUHU216WMR968SP,2013-03-07 12:19:00,
2013-03-07 07:24:00,33.6,26.2,30.30,NNE,31,0.0,5.4,74,0.00,,,0.00,WUHU216WMR968SP,2013-03-07 12:24:00,
2013-03-07 07:29:00,33.8,26.4,30.30,NNE,31,0.0,4.6,74,0.00,,,0.00,WUHU216WMR968SP,2013-03-07 12:29:00,
2013-03-07 07:34:00,33.8,26.4,30.30,NNE,31,0.0,0.0,74,0.00,,,0.00,WUHU216WMR968SP,2013-03-07 12:34:00,
2013-03-07 07:39:00,33.8,26.4,30.30,ENE,66,0.0,0.0,74,0.00,,,0.00,WUHU216WMR968SP,2013-03-07 12:39:00,
2013-03-07 07:44:00,34.0,26.6,30.30,NNW,334,0.0,5.4,74,0.00,,,0.00,WUHU216WMR968SP,2013-03-07 12:44:00,
2013-03-07 07:49:00,34.0,26.6,30.30,NNW,342,0.0,6.0,74,0.00,,,0.00,WUHU216WMR968SP,2013-03-07 12:49:00,
2013-03-07 07:54:00,34.0,26.3,30.30,NE,39,0.0,6.0,73,0.00,,,0.00,WUHU216WMR968SP,2013-03-07 12:54:00,
2013-03-07 07:59:00,34.0,26.6,30.30,North,0,3.3,6.0,74,0.00,,,0.00,WUHU216WMR968SP,2013-03-07 12:59:00,
2013-03-07 08:04:00,34.0,26.6,30.30,NNW,328,0.0,6.0,74,0.00,,,0.00,WUHU216WMR968SP,2013-03-07 13:04:00,
2013-03-07 08:09:00,34.0,26.6,30.33,North,6,0.0,5.4,74,0.00,,,0.00,WUHU216WMR968SP,2013-03-07 13:09:00,
2013-03-07 08:14:00,34.0,26.6,30.33,North,7,3.3,5.4,74,0.00,,,0.00,WUHU216WMR968SP,2013-03-07 13:14:00,
2013-03-07 08:19:00,34.2,26.8,30.33,NE,37,0.0,4.6,74,0.00,,,0.00,WUHU216WMR968SP,2013-03-07 13:19:00,
2013-03-07 08:24:00,34.3,26.9,30.33,ENE,61,0.0,3.3,74,0.00,,,0.00,WUHU216WMR968SP,2013-03-07 13:24:00,
2013-03-07 08:29:00,34.3,26.9,30.33,NE,45,0.0,0.0,74,0.00,,,0.00,WUHU216WMR968SP,2013-03-07 13:29:00,
2013-03-07 08:34:00,34.5,27.1,30.30,North,349,0.0,4.6,74,0.00,,,0.00,WUHU216WMR968SP,2013-03-07 13:34:00,
2013-03-07 08:39:00,34.5,27.1,30.30,North,349,0.0,4.6,74,0.00,,,0.00,WUHU216WMR968SP,2013-03-07 13:39:00,
2013-03-07 08:44:00,34.7,27.3,30.30,North,357,3.3,4.6,74,0.00,,,0.00,WUHU216WMR968SP,2013-03-07 13:44:00,
2013-03-07 08:49:00,34.9,27.5,30.33,North,9,0.0,4.6,74,0.00,,,0.00,WUHU216WMR968SP,2013-03-07 13:49:00,
2013-03-07 08:54:00,34.9,27.5,30.33,NE,44,0.0,7.4,74,0.00,,,0.00,WUHU216WMR968SP,2013-03-07 13:54:00,
2013-03-07 08:59:00,35.1,27.7,30.33,NNW,334,0.0,7.4,74,0.00,,,0.00,WUHU216WMR968SP,2013-03-07 13:59:00,
2013-03-07 09:04:00,35.1,27.7,30.33,NW,316,0.0,5.4,74,0.00,,,0.00,WUHU216WMR968SP,2013-03-07 14:04:00,
2013-03-07 09:09:00,35.2,27.8,30.33,North,1,0.0,3.3,74,0.00,,,0.00,WUHU216WMR968SP,2013-03-07 14:09:00,
2013-03-07 09:15:00,35.4,27.7,30.33,NE,49,0.0,4.6,73,0.00,,,0.00,WUHU216WMR968SP,2013-03-07 14:15:00,
2013-03-07 09:20:00,35.6,27.9,30.33,NNW,328,0.0,4.6,73,0.00,,,0.00,WUHU216WMR968SP,2013-03-07 14:20:00,
2013-03-07 09:25:00,35.8,28.0,30.33,NE,46,0.0,4.1,73,0.00,,,0.00,WUHU216WMR968SP,2013-03-07 14:25:00,
2013-03-07 09:30:00,35.8,28.0,30.33,North,357,0.0,4.6,73,0.00,,,0.00,WUHU216WMR968SP,2013-03-07 14:30:00,
2013-03-07 09:35:00,36.0,27.9,30.33,North,357,0.0,4.6,72,0.00,,,0.00,WUHU216WMR968SP,2013-03-07 14:35:00,
2013-03-07 09:40:00,36.1,28.0,30.33,North,0,0.0,3.3,72,0.00,,,0.00,WUHU216WMR968SP,2013-03-07 14:40:00,
2013-03-07 09:45:00,36.3,28.2,30.33,North,357,0.0,0.0,72,0.00,,,0.00,WUHU216WMR968SP,2013-03-07 14:45:00,
2013-03-07 09:50:00,36.5,28.4,30.33,North,353,0.0,0.0,72,0.00,,,0.00,WUHU216WMR968SP,2013-03-07 14:50:00,
2013-03-07 09:55:00,36.5,28.1,30.33,NE,37,0.0,4.6,71,0.00,,,0.00,WUHU216WMR968SP,2013-03-07 14:55:00,
2013-03-07 10:00:00,36.5,28.1,30.33,NE,41,0.0,4.6,71,0.00,,,0.00,WUHU216WMR968SP,2013-03-07 15:00:00,
2013-03-07 10:05:00,36.5,27.7,30.33,NE,35,0.0,4.1,70,0.00,,,0.00,WUHU216WMR968SP,2013-03-07 15:05:00,
2013-03-07 10:10:00,36.7,27.9,30.33,NW,310,3.3,4.6,70,0.00,,,0.00,WUHU216WMR968SP,2013-03-07 15:10:00,
2013-03-07 10:15:00,36.7,27.9,30.33,North,10,0.0,4.6,70,0.00,,,0.00,WUHU216WMR968SP,2013-03-07 15:15:00,
2013-03-07 10:20:00,36.7,27.6,30.36,East,97,5.4,7.4,69,0.00,,,0.00,WUHU216WMR968SP,2013-03-07 15:20:00,
2013-03-07 10:25:00,36.7,27.6,30.36,North,353,0.0,7.4,69,0.00,,,0.00,WUHU216WMR968SP,2013-03-07 15:25:00,
2013-03-07 10:30:00,36.9,27.8,30.36,NE,45,0.0,4.1,69,0.00,,,0.00,WUHU216WMR968SP,2013-03-07 15:30:00,
2013-03-07 10:35:00,37.0,27.8,30.36,North,353,0.0,4.1,69,0.00,,,0.00,WUHU216WMR968SP,2013-03-07 15:35:00,
2013-03-07 10:40:00,36.9,27.4,30.36,ENE,60,0.0,4.1,68,0.00,,,0.00,WUHU216WMR968SP,2013-03-07 15:40:00,
2013-03-07 10:45:00,37.0,27.8,30.36,ENE,64,4.1,4.6,69,0.00,,,0.00,WUHU216WMR968SP,2013-03-07 15:45:00,
2013-03-07 10:51:00,37.0,27.8,30.33,North,0,0.0,5.4,69,0.00,,,0.00,WUHU216WMR968SP,2013-03-07 15:51:00,
2013-03-07 10:56:00,36.9,27.8,30.33,North,357,4.1,5.4,69,0.00,,,0.00,WUHU216WMR968SP,2013-03-07 15:56:00,
2013-03-07 11:01:00,36.9,27.8,30.33,NE,48,4.1,5.4,69,0.00,,,0.00,WUHU216WMR968SP,2013-03-07 16:01:00,
2013-03-07 11:06:00,37.2,28.0,30.33,NE,44,0.0,5.4,69,0.00,,,0.00,WUHU216WMR968SP,2013-03-07 16:06:00,
2013-03-07 11:11:00,37.8,28.6,30.33,NE,46,0.0,4.6,69,0.00,,,0.00,WUHU216WMR968SP,2013-03-07 16:11:00,
2013-03-07 11:16:00,37.9,28.4,30.33,NNE,17,0.0,4.6,68,0.00,,,0.00,WUHU216WMR968SP,2013-03-07 16:16:00,
2013-03-07 11:21:00,38.3,28.7,30.33,NNE,13,0.0,4.6,68,0.00,,,0.00,WUHU216WMR968SP,2013-03-07 16:21:00,
2013-03-07 11:26:00,38.3,28.4,30.33,ESE,102,4.1,6.0,67,0.00,,,0.00,WUHU216WMR968SP,2013-03-07 16:26:00,
2013-03-07 11:31:00,38.3,28.4,30.33,ENE,59,0.0,6.0,67,0.00,,,0.00,WUHU216WMR968SP,2013-03-07 16:31:00,
2013-03-07 11:36:00,37.9,27.6,30.33,NE,48,0.0,6.0,66,0.00,,,0.00,WUHU216WMR968SP,2013-03-07 16:36:00,
2013-03-07 11:41:00,38.5,28.6,30.33,North,353,0.0,6.0,67,0.00,,,0.00,WUHU216WMR968SP,2013-03-07 16:41:00,
2013-03-07 11:46:00,38.3,27.6,30.33,NE,56,4.6,7.4,65,0.00,,,0.00,WUHU216WMR968SP,2013-03-07 16:46:00,
2013-03-07 11:51:00,38.1,27.4,30.33,NNE,23,5.4,7.4,65,0.00,,,0.00,WUHU216WMR968SP,2013-03-07 16:51:00,
2013-03-07 11:56:00,38.7,28.4,30.33,North,0,0.0,7.4,66,0.00,,,0.00,WUHU216WMR968SP,2013-03-07 16:56:00,
2013-03-07 12:01:00,39.0,28.3,30.33,WNW,301,4.1,5.4,65,0.00,,,0.00,WUHU216WMR968SP,2013-03-07 17:01:00,
2013-03-07 12:06:00,39.2,28.1,30.33,North,4,4.1,5.4,64,0.00,,,0.00,WUHU216WMR968SP,2013-03-07 17:06:00,
2013-03-07 12:11:00,39.2,28.1,30.33,ENE,65,4.1,6.8,64,0.00,,,0.00,WUHU216WMR968SP,2013-03-07 17:11:00,
2013-03-07 12:17:00,39.6,28.5,30.33,NNE,18,0.0,6.8,64,0.00,,,0.00,WUHU216WMR968SP,2013-03-07 17:17:00,
2013-03-07 12:22:00,39.7,28.6,30.33,NW,316,3.3,4.6,64,0.00,,,0.00,WUHU216WMR968SP,2013-03-07 17:22:00,
2013-03-07 12:27:00,39.9,28.4,30.33,East,86,0.0,5.4,63,0.00,,,0.00,WUHU216WMR968SP,2013-03-07 17:27:00,
2013-03-07 12:32:00,40.1,28.2,30.33,NNW,348,5.4,8.1,62,0.00,,,0.00,WUHU216WMR968SP,2013-03-07 17:32:00,
2013-03-07 12:37:00,39.9,28.0,30.33,NNW,346,4.6,8.1,62,0.00,,,0.00,WUHU216WMR968SP,2013-03-07 17:37:00,
2013-03-07 12:42:00,40.1,28.2,30.33,ENE,60,3.3,6.0,62,0.00,,,0.00,WUHU216WMR968SP,2013-03-07 17:42:00,
2013-03-07 12:47:00,39.4,27.1,30.33,NE,45,3.3,8.1,61,0.00,,,0.00,WUHU216WMR968SP,2013-03-07 17:47:00,
2013-03-07 12:52:00,39.9,28.0,30.33,North,2,4.1,8.1,62,0.00,,,0.00,WUHU216WMR968SP,2013-03-07 17:52:00,
2013-03-07 12:57:00,40.5,28.6,30.33,NNW,329,0.0,5.4,62,0.00,,,0.00,WUHU216WMR968SP,2013-03-07 17:57:00,
2013-03-07 13:02:00,40.8,28.9,30.33,NE,39,3.3,5.4,62,0.00,,,0.00,WUHU216WMR968SP,2013-03-07 18:02:00,
2013-03-07 13:07:00,40.8,28.5,30.30,SE,126,0.0,5.4,61,0.00,,,0.00,WUHU216WMR968SP,2013-03-07 18:07:00,
2013-03-07 13:12:00,40.6,28.3,30.30,NE,46,4.6,8.1,61,0.00,,,0.00,WUHU216WMR968SP,2013-03-07 18:12:00,
2013-03-07 13:17:00,40.6,28.3,30.30,SE,140,0.0,8.1,61,0.00,,,0.00,WUHU216WMR968SP,2013-03-07 18:17:00,
2013-03-07 13:22:00,40.6,28.3,30.30,NE,50,3.3,6.0,61,0.00,,,0.00,WUHU216WMR968SP,2013-03-07 18:22:00,
2013-03-07 13:27:00,41.2,28.8,30.30,NNE,27,3.3,6.8,61,0.00,,,0.00,WUHU216WMR968SP,2013-03-07 18:27:00,
2013-03-07 13:32:00,41.4,29.0,30.30,North,8,0.0,6.8,61,0.00,,,0.00,WUHU216WMR968SP,2013-03-07 18:32:00,
2013-03-07 13:37:00,41.0,28.2,30.30,NW,320,3.3,6.0,60,0.00,,,0.00,WUHU216WMR968SP,2013-03-07 18:37:00,
2013-03-07 13:42:00,41.5,28.7,30.30,WNW,297,0.0,7.4,60,0.00,,,0.00,WUHU216WMR968SP,2013-03-07 18:42:00,
2013-03-07 13:47:00,41.7,28.9,30.30,North,1,0.0,8.7,60,0.00,,,0.00,WUHU216WMR968SP,2013-03-07 18:47:00,
2013-03-07 13:52:00,41.7,28.9,30.30,WNW,297,4.1,8.7,60,0.00,,,0.00,WUHU216WMR968SP,2013-03-07 18:52:00,
2013-03-07 13:57:00,42.1,29.3,30.30,WNW,294,4.6,6.0,60,0.00,,,0.00,WUHU216WMR968SP,2013-03-07 18:57:00,
2013-03-07 14:03:00,41.9,29.1,30.30,WNW,299,3.3,6.8,60,0.00,,,0.00,WUHU216WMR968SP,2013-03-07 19:03:00,
2013-03-07 14:08:00,41.7,28.9,30.30,WNW,291,0.0,8.1,60,0.00,,,0.00,WUHU216WMR968SP,2013-03-07 19:08:00,
2013-03-07 14:13:00,41.9,28.7,30.30,NW,317,4.1,8.1,59,0.00,,,0.00,WUHU216WMR968SP,2013-03-07 19:13:00,
2013-03-07 14:18:00,42.1,29.3,30.30,WNW,301,4.6,7.4,60,0.00,,,0.00,WUHU216WMR968SP,2013-03-07 19:18:00,
2013-03-07 14:23:00,41.7,28.9,30.30,NW,321,5.4,8.1,60,0.00,,,0.00,WUHU216WMR968SP,2013-03-07 19:23:00,
2013-03-07 14:28:00,41.5,28.3,30.30,North,357,4.6,8.1,59,0.00,,,0.00,WUHU216WMR968SP,2013-03-07 19:28:00,
2013-03-07 14:33:00,41.4,28.2,30.30,WNW,301,4.1,6.0,59,0.00,,,0.00,WUHU216WMR968SP,2013-03-07 19:33:00,
2013-03-07 14:38:00,41.5,28.3,30.30,North,357,3.3,6.0,59,0.00,,,0.00,WUHU216WMR968SP,2013-03-07 19:38:00,
2013-03-07 14:43:00,41.7,28.5,30.30,NNW,346,3.3,6.0,59,0.00,,,0.00,WUHU216WMR968SP,2013-03-07 19:43:00,
2013-03-07 14:48:00,42.1,28.9,30.30,NW,324,0.0,6.0,59,0.00,,,0.00,WUHU216WMR968SP,2013-03-07 19:48:00,
2013-03-07 14:53:00,42.3,29.0,30.30,North,357,3.3,6.0,59,0.00,,,0.00,WUHU216WMR968SP,2013-03-07 19:53:00,
2013-03-07 14:58:00,42.4,29.1,30.30,WNW,292,4.1,8.1,59,0.00,,,0.00,WUHU216WMR968SP,2013-03-07 19:58:00,
2013-03-07 15:03:00,42.4,29.1,30.30,WNW,297,0.0,8.1,59,0.00,,,0.00,WUHU216WMR968SP,2013-03-07 20:03:00,
2013-03-07 15:08:00,42.8,29.1,30.30,NNW,336,0.0,6.8,58,0.00,,,0.00,WUHU216WMR968SP,2013-03-07 20:08:00,
2013-03-07 15:13:00,43.0,29.3,30.30,NW,305,0.0,7.4,58,0.00,,,0.00,WUHU216WMR968SP,2013-03-07 20:13:00,
2013-03-07 15:18:00,43.2,29.5,30.30,NNW,342,0.0,7.4,58,0.00,,,0.00,WUHU216WMR968SP,2013-03-07 20:18:00,
2013-03-07 15:23:00,43.0,28.8,30.30,NNW,333,3.3,5.4,57,0.00,,,0.00,WUHU216WMR968SP,2013-03-07 20:23:00,
2013-03-07 15:28:00,43.0,28.8,30.30,NNE,15,3.3,6.0,57,0.00,,,0.00,WUHU216WMR968SP,2013-03-07 20:28:00,
2013-03-07 15:33:00,42.8,28.7,30.30,SW,235,4.1,6.0,57,0.00,,,0.00,WUHU216WMR968SP,2013-03-07 20:33:00,
2013-03-07 15:38:00,43.3,29.1,30.30,North,357,4.1,8.1,57,0.00,,,0.00,WUHU216WMR968SP,2013-03-07 20:38:00,
2013-03-07 15:43:00,43.5,29.3,30.30,NE,53,4.1,8.1,57,0.00,,,0.00,WUHU216WMR968SP,2013-03-07 20:43:00,
2013-03-07 15:48:00,44.1,29.9,30.30,NW,315,4.6,8.1,57,0.00,,,0.00,WUHU216WMR968SP,2013-03-07 20:48:00,
2013-03-07 15:53:00,44.1,29.4,30.30,NNW,345,0.0,6.0,56,0.00,,,0.00,WUHU216WMR968SP,2013-03-07 20:53:00,
2013-03-07 15:58:00,44.2,29.5,30.30,NW,317,6.0,6.8,56,0.00,,,0.00,WUHU216WMR968SP,2013-03-07 20:58:00,
2013-03-07 16:04:00,44.8,29.6,30.30,NW,312,3.3,7.4,55,0.00,,,0.00,WUHU216WMR968SP,2013-03-07 21:04:00,
2013-03-07 16:09:00,44.8,29.6,30.30,North,357,4.1,7.4,55,0.00,,,0.00,WUHU216WMR968SP,2013-03-07 21:09:00,
2013-03-07 16:14:00,44.6,29.5,30.30,North,7,4.1,6.0,55,0.00,,,0.00,WUHU216WMR968SP,2013-03-07 21:14:00,
2013-03-07 16:19:00,44.2,29.1,30.30,North,1,4.6,6.0,55,0.00,,,0.00,WUHU216WMR968SP,2013-03-07 21:19:00,
2013-03-07 16:24:00,44.1,29.0,30.30,NE,42,3.3,6.0,55,0.00,,,0.00,WUHU216WMR968SP,2013-03-07 21:24:00,
2013-03-07 16:29:00,43.7,28.6,30.30,North,353,0.0,6.0,55,0.00,,,0.00,WUHU216WMR968SP,2013-03-07 21:29:00,
2013-03-07 16:34:00,43.5,28.4,30.30,ENE,65,0.0,6.0,55,0.00,,,0.00,WUHU216WMR968SP,2013-03-07 21:34:00,
2013-03-07 16:39:00,43.7,28.6,30.30,ESE,106,3.3,6.0,55,0.00,,,0.00,WUHU216WMR968SP,2013-03-07 21:39:00,
2013-03-07 16:44:00,43.5,28.4,30.30,ENE,69,3.3,6.0,55,0.00,,,0.00,WUHU216WMR968SP,2013-03-07 21:44:00,
2013-03-07 16:49:00,42.6,28.0,30.30,ENE,67,3.3,8.1,56,0.00,,,0.00,WUHU216WMR968SP,2013-03-07 21:49:00,
2013-03-07 16:54:00,42.1,27.6,30.30,NNE,16,0.0,8.1,56,0.00,,,0.00,WUHU216WMR968SP,2013-03-07 21:54:00,
2013-03-07 16:59:00,41.4,26.9,30.30,North,1,3.3,7.4,56,0.00,,,0.00,WUHU216WMR968SP,2013-03-07 21:59:00,
2013-03-07 17:04:00,41.5,27.0,30.30,NNE,23,3.3,7.4,56,0.00,,,0.00,WUHU216WMR968SP,2013-03-07 22:04:00,
2013-03-07 17:09:00,41.5,27.4,30.30,NNE,29,4.1,5.4,57,0.00,,,0.00,WUHU216WMR968SP,2013-03-07 22:09:00,
2013-03-07 17:14:00,41.5,27.4,30.30,NE,42,4.6,8.1,57,0.00,,,0.00,WUHU216WMR968SP,2013-03-07 22:14:00,
2013-03-07 17:19:00,41.5,27.4,30.30,NNE,33,0.0,8.1,57,0.00,,,0.00,WUHU216WMR968SP,2013-03-07 22:19:00,
2013-03-07 17:24:00,41.5,27.4,30.30,North,1,0.0,5.4,57,0.00,,,0.00,WUHU216WMR968SP,2013-03-07 22:24:00,
2013-03-07 17:29:00,41.5,27.4,30.30,NNE,19,4.1,5.4,57,0.00,,,0.00,WUHU216WMR968SP,2013-03-07 22:29:00,
2013-03-07 17:34:00,41.2,27.2,30.30,NE,47,0.0,5.4,57,0.00,,,0.00,WUHU216WMR968SP,2013-03-07 22:34:00,
2013-03-07 17:39:00,40.8,27.2,30.30,NNE,17,0.0,6.0,58,0.00,,,0.00,WUHU216WMR968SP,2013-03-07 22:39:00,
2013-03-07 17:44:00,40.5,26.9,30.30,NE,49,3.3,7.4,58,0.00,,,0.00,WUHU216WMR968SP,2013-03-07 22:44:00,
2013-03-07 17:49:00,40.3,26.7,30.30,North,3,3.3,7.4,58,0.00,,,0.00,WUHU216WMR968SP,2013-03-07 22:49:00,
2013-03-07 17:54:00,39.9,26.4,30.30,North,4,0.0,5.4,58,0.00,,,0.00,WUHU216WMR968SP,2013-03-07 22:54:00,
2013-03-07 17:59:00,39.7,26.6,30.30,NNE,33,0.0,5.4,59,0.00,,,0.00,WUHU216WMR968SP,2013-03-07 22:59:00,
2013-03-07 18:04:00,39.6,26.5,30.30,ENE,64,0.0,4.6,59,0.00,,,0.00,WUHU216WMR968SP,2013-03-07 23:04:00,
2013-03-07 18:09:00,39.4,26.3,30.30,North,357,0.0,4.6,59,0.00,,,0.00,WUHU216WMR968SP,2013-03-07 23:09:00,
2013-03-07 18:14:00,39.0,26.3,30.30,NE,39,0.0,5.4,60,0.00,,,0.00,WUHU216WMR968SP,2013-03-07 23:14:00,
2013-03-07 18:19:00,38.8,26.2,30.30,NNE,31,0.0,5.4,60,0.00,,,0.00,WUHU216WMR968SP,2013-03-07 23:19:00,
2013-03-07 18:24:00,38.5,25.9,30.30,NNE,33,0.0,5.4,60,0.00,,,0.00,WUHU216WMR968SP,2013-03-07 23:24:00,
2013-03-07 18:30:00,38.3,26.1,30.30,NNE,19,0.0,0.0,61,0.00,,,0.00,WUHU216WMR968SP,2013-03-07 23:30:00,
2013-03-07 18:35:00,37.9,25.7,30.30,North,353,0.0,0.0,61,0.00,,,0.00,WUHU216WMR968SP,2013-03-07 23:35:00,
2013-03-07 18:40:00,37.8,26.0,30.30,NNE,27,0.0,4.1,62,0.00,,,0.00,WUHU216WMR968SP,2013-03-07 23:40:00,
2013-03-07 18:45:00,37.6,25.8,30.30,NNE,25,0.0,4.1,62,0.00,,,0.00,WUHU216WMR968SP,2013-03-07 23:45:00,
2013-03-07 18:50:00,37.4,25.6,30.33,NNE,25,0.0,0.0,62,0.00,,,0.00,WUHU216WMR968SP,2013-03-07 23:50:00,
2013-03-07 18:55:00,37.0,25.6,30.33,NNE,25,0.0,0.0,63,0.00,,,0.00,WUHU216WMR968SP,2013-03-07 23:55:00,
2013-03-07 19:00:00,36.9,25.9,30.33,NNE,25,0.0,0.0,64,0.00,,,0.00,WUHU216WMR968SP,2013-03-08 00:00:00,
2013-03-07 19:05:00,36.7,25.7,30.33,NNE,25,0.0,0.0,64,0.00,,,0.00,WUHU216WMR968SP,2013-03-08 00:05:00,
2013-03-07 19:10:00,36.3,25.7,30.33,NNE,25,0.0,0.0,65,0.00,,,0.00,WUHU216WMR968SP,2013-03-08 00:10:00,
2013-03-07 19:15:00,36.3,25.7,30.33,NNE,25,0.0,0.0,65,0.00,,,0.00,WUHU216WMR968SP,2013-03-08 00:15:00,
2013-03-07 19:20:00,36.3,26.1,30.30,NE,41,0.0,4.6,66,0.00,,,0.00,WUHU216WMR968SP,2013-03-08 00:20:00,
2013-03-07 19:25:00,36.3,26.1,30.30,NE,42,0.0,4.6,66,0.00,,,0.00,WUHU216WMR968SP,2013-03-08 00:25:00,
2013-03-07 19:30:00,36.3,26.1,30.30,NE,39,0.0,0.0,66,0.00,,,0.00,WUHU216WMR968SP,2013-03-08 00:30:00,
2013-03-07 19:35:00,36.3,26.1,30.33,NE,39,0.0,0.0,66,0.00,,,0.00,WUHU216WMR968SP,2013-03-08 00:35:00,
2013-03-07 19:40:00,36.1,26.3,30.33,NE,39,0.0,0.0,67,0.00,,,0.00,WUHU216WMR968SP,2013-03-08 00:40:00,
2013-03-07 19:45:00,36.1,26.3,30.33,NE,39,0.0,0.0,67,0.00,,,0.00,WUHU216WMR968SP,2013-03-08 00:45:00,
2013-03-07 19:50:00,36.1,26.6,30.33,NE,39,0.0,0.0,68,0.00,,,0.00,WUHU216WMR968SP,2013-03-08 00:50:00,
2013-03-07 19:55:00,36.3,26.8,30.33,NE,37,0.0,5.4,68,0.00,,,0.00,WUHU216WMR968SP,2013-03-08 00:55:00,
2013-03-07 20:00:00,36.3,26.8,30.33,North,2,3.3,5.4,68,0.00,,,0.00,WUHU216WMR968SP,2013-03-08 01:00:00,
2013-03-07 20:05:00,36.5,27.0,30.33,North,1,0.0,5.4,68,0.00,,,0.00,WUHU216WMR968SP,2013-03-08 01:05:00,
2013-03-07 20:10:00,36.5,26.7,30.33,NNE,28,3.3,5.4,67,0.00,,,0.00,WUHU216WMR968SP,2013-03-08 01:10:00,
2013-03-07 20:15:00,36.5,26.7,30.33,NNE,28,0.0,5.4,67,0.00,,,0.00,WUHU216WMR968SP,2013-03-08 01:15:00,
2013-03-07 20:20:00,36.5,26.7,30.33,North,0,0.0,4.6,67,0.00,,,0.00,WUHU216WMR968SP,2013-03-08 01:20:00,
2013-03-07 20:25:00,36.7,26.8,30.33,North,0,0.0,4.6,67,0.00,,,0.00,WUHU216WMR968SP,2013-03-08 01:25:00,
2013-03-07 20:30:00,36.7,26.8,30.33,NE,43,0.0,0.0,67,0.00,,,0.00,WUHU216WMR968SP,2013-03-08 01:30:00,
2013-03-07 20:35:00,36.7,27.2,30.33,NE,43,0.0,0.0,68,0.00,,,0.00,WUHU216WMR968SP,2013-03-08 01:35:00,
2013-03-07 20:40:00,36.5,27.0,30.33,ENE,60,0.0,0.0,68,0.00,,,0.00,WUHU216WMR968SP,2013-03-08 01:40:00,
2013-03-07 20:45:00,36.5,27.0,30.33,NE,53,0.0,3.3,68,0.00,,,0.00,WUHU216WMR968SP,2013-03-08 01:45:00,
2013-03-07 20:50:00,36.5,27.0,30.33,NE,52,0.0,4.1,68,0.00,,,0.00,WUHU216WMR968SP,2013-03-08 01:50:00,
2013-03-07 20:55:00,36.5,27.0,30.33,NE,36,3.3,4.1,68,0.00,,,0.00,WUHU216WMR968SP,2013-03-08 01:55:00,
2013-03-07 21:00:00,36.7,27.2,30.33,NE,46,0.0,4.6,68,0.00,,,0.00,WUHU216WMR968SP,2013-03-08 02:00:00,
2013-03-07 21:06:00,36.5,27.0,30.33,NE,46,0.0,4.6,68,0.00,,,0.00,WUHU216WMR968SP,2013-03-08 02:06:00,
2013-03-07 21:11:00,36.5,27.0,30.33,NNE,17,0.0,4.6,68,0.00,,,0.00,WUHU216WMR968SP,2013-03-08 02:11:00,
2013-03-07 21:16:00,36.5,27.4,30.33,NE,35,0.0,4.6,69,0.00,,,0.00,WUHU216WMR968SP,2013-03-08 02:16:00,
2013-03-07 21:21:00,36.5,27.4,30.33,SE,125,0.0,4.6,69,0.00,,,0.00,WUHU216WMR968SP,2013-03-08 02:21:00,
2013-03-07 21:26:00,36.5,27.4,30.33,NNE,32,0.0,4.6,69,0.00,,,0.00,WUHU216WMR968SP,2013-03-08 02:26:00,
2013-03-07 21:31:00,36.5,27.4,30.33,NNE,23,0.0,5.4,69,0.00,,,0.00,WUHU216WMR968SP,2013-03-08 02:31:00,
2013-03-07 21:36:00,36.3,27.2,30.33,NE,46,5.4,7.4,69,0.00,,,0.00,WUHU216WMR968SP,2013-03-08 02:36:00,
2013-03-07 21:41:00,36.3,27.2,30.33,ENE,63,0.0,7.4,69,0.00,,,0.00,WUHU216WMR968SP,2013-03-08 02:41:00,
2013-03-07 21:46:00,36.3,27.2,30.33,NE,36,0.0,5.4,69,0.00,,,0.00,WUHU216WMR968SP,2013-03-08 02:46:00,
2013-03-07 21:51:00,36.3,27.2,30.33,NE,36,0.0,5.4,69,0.00,,,0.00,WUHU216WMR968SP,2013-03-08 02:51:00,
2013-03-07 21:56:00,36.3,27.2,30.33,ENE,71,3.3,5.4,69,0.00,,,0.00,WUHU216WMR968SP,2013-03-08 02:56:00,
2013-03-07 22:01:00,36.3,27.2,30.33,East,99,0.0,5.4,69,0.00,,,0.00,WUHU216WMR968SP,2013-03-08 03:01:00,
2013-03-07 22:06:00,36.1,27.0,30.33,East,87,0.0,4.6,69,0.00,,,0.00,WUHU216WMR968SP,2013-03-08 03:06:00,
2013-03-07 22:11:00,36.1,27.0,30.33,ENE,78,3.3,6.0,69,0.00,,,0.00,WUHU216WMR968SP,2013-03-08 03:11:00,
2013-03-07 22:16:00,36.1,27.0,30.33,ESE,109,3.3,6.0,69,0.00,,,0.00,WUHU216WMR968SP,2013-03-08 03:16:00,
2013-03-07 22:21:00,36.1,27.0,30.33,NE,41,4.1,6.0,69,0.00,,,0.00,WUHU216WMR968SP,2013-03-08 03:21:00,
2013-03-07 22:26:00,36.0,26.9,30.33,ENE,77,0.0,6.0,69,0.00,,,0.00,WUHU216WMR968SP,2013-03-08 03:26:00,
2013-03-07 22:31:00,35.8,26.7,30.33,NE,48,4.1,8.1,69,0.00,,,0.00,WUHU216WMR968SP,2013-03-08 03:31:00,
2013-03-07 22:36:00,35.8,26.7,30.33,ENE,58,5.4,9.5,69,0.00,,,0.00,WUHU216WMR968SP,2013-03-08 03:36:00,
2013-03-07 22:41:00,35.8,26.7,30.33,East,93,0.0,9.5,69,0.00,,,0.00,WUHU216WMR968SP,2013-03-08 03:41:00,
2013-03-07 22:46:00,35.6,26.5,30.33,East,96,4.6,7.4,69,0.00,,,0.00,WUHU216WMR968SP,2013-03-08 03:46:00,
2013-03-07 22:51:00,35.6,26.5,30.33,ENE,77,4.6,7.4,69,0.00,,,0.00,WUHU216WMR968SP,2013-03-08 03:51:00,
2013-03-07 22:56:00,35.6,26.5,30.33,ENE,61,0.0,6.0,69,0.00,,,0.00,WUHU216WMR968SP,2013-03-08 03:56:00,
2013-03-07 23:01:00,35.4,26.7,30.33,East,80,0.0,5.4,70,0.00,,,0.00,WUHU216WMR968SP,2013-03-08 04:01:00,
2013-03-07 23:07:00,35.2,26.1,30.33,NE,40,5.4,8.1,69,0.00,,,0.00,WUHU216WMR968SP,2013-03-08 04:07:00,
2013-03-07 23:12:00,35.1,26.0,30.33,NE,49,3.3,8.1,69,0.00,,,0.00,WUHU216WMR968SP,2013-03-08 04:12:00,
2013-03-07 23:17:00,35.1,26.0,30.33,NNE,28,4.1,8.7,69,0.00,,,0.00,WUHU216WMR968SP,2013-03-08 04:17:00,
2013-03-07 23:22:00,34.9,25.8,30.33,NE,38,3.3,8.7,69,0.00,,,0.00,WUHU216WMR968SP,2013-03-08 04:22:00,
2013-03-07 23:27:00,34.9,25.8,30.33,East,91,3.3,8.1,69,0.00,,,0.00,WUHU216WMR968SP,2013-03-08 04:27:00,
2013-03-07 23:32:00,34.7,25.6,30.33,ENE,74,5.4,8.7,69,0.00,,,0.00,WUHU216WMR968SP,2013-03-08 04:32:00,
2013-03-07 23:37:00,34.5,25.4,30.33,ENE,64,3.3,12.2,69,0.00,,,0.00,WUHU216WMR968SP,2013-03-08 04:37:00,
2013-03-07 23:42:00,34.3,25.3,30.33,NNE,17,3.3,12.2,69,0.00,,,0.00,WUHU216WMR968SP,2013-03-08 04:42:00,
2013-03-07 23:47:00,34.3,25.3,30.33,ENE,61,4.1,8.1,69,0.00,,,0.00,WUHU216WMR968SP,2013-03-08 04:47:00,
2013-03-07 23:52:00,34.2,25.2,30.33,NE,41,3.3,8.1,69,0.00,,,0.00,WUHU216WMR968SP,2013-03-08 04:52:00,
2013-03-07 23:57:00,34.2,25.2,30.33,East,85,0.0,8.1,69,0.00,,,0.00,WUHU216WMR968SP,2013-03-08 04:57:00,